Year,Month,Day,Hour,Minute,Value (Times are PST for temperature in C)
2021,08,13,00,00,27.30
2021,08,13,00,01,27.30
2021,08,13,00,02,27.30
2021,08,13,00,03,27.30
2021,08,13,00,04,27.30
2021,08,13,00,05,27.30
2021,08,13,00,06,27.30
2021,08,13,00,07,27.20
2021,08,13,00,08,27.20
2021,08,13,00,09,27.10
2021,08,13,00,10,27.00
2021,08,13,00,11,26.90
2021,08,13,00,12,26.80
2021,08,13,00,13,26.80
2021,08,13,00,14,26.70
2021,08,13,00,15,26.70
2021,08,13,00,16,26.70
2021,08,13,00,17,26.70
2021,08,13,00,18,26.70
2021,08,13,00,19,26.70
2021,08,13,00,20,26.70
2021,08,13,00,21,26.70
2021,08,13,00,22,26.70
2021,08,13,00,23,26.70
2021,08,13,00,24,26.70
2021,08,13,00,25,26.70
2021,08,13,00,26,26.60
2021,08,13,00,27,26.50
2021,08,13,00,28,26.20
2021,08,13,00,29,26.00
2021,08,13,00,30,25.80
2021,08,13,00,31,25.50
2021,08,13,00,32,25.30
2021,08,13,00,33,25.10
2021,08,13,00,34,24.90
2021,08,13,00,35,24.70
2021,08,13,00,36,24.60
2021,08,13,00,37,24.50
2021,08,13,00,38,24.40
2021,08,13,00,39,24.40
2021,08,13,00,40,24.30
2021,08,13,00,41,24.20
2021,08,13,00,42,24.20
2021,08,13,00,43,24.20
2021,08,13,00,44,24.10
2021,08,13,00,45,24.00
2021,08,13,00,46,24.00
2021,08,13,00,47,23.90
2021,08,13,00,48,23.90
2021,08,13,00,49,23.80
2021,08,13,00,50,23.80
2021,08,13,00,51,23.80
2021,08,13,00,52,23.70
2021,08,13,00,53,23.70
2021,08,13,00,54,23.60
2021,08,13,00,55,23.60
2021,08,13,00,56,23.60
2021,08,13,00,57,23.50
2021,08,13,00,58,23.50
2021,08,13,00,59,23.40
2021,08,13,01,00,23.40
2021,08,13,01,01,23.40
2021,08,13,01,02,23.30
2021,08,13,01,03,23.30
2021,08,13,01,04,23.20
2021,08,13,01,05,23.20
2021,08,13,01,06,23.20
2021,08,13,01,07,23.20
2021,08,13,01,08,23.20
2021,08,13,01,09,23.20
2021,08,13,01,10,23.20
2021,08,13,01,11,23.20
2021,08,13,01,12,23.10
2021,08,13,01,13,23.10
2021,08,13,01,14,23.10
2021,08,13,01,15,23.10
2021,08,13,01,16,23.10
2021,08,13,01,17,23.10
2021,08,13,01,18,23.10
2021,08,13,01,19,23.00
2021,08,13,01,20,23.00
2021,08,13,01,21,23.00
2021,08,13,01,22,22.90
2021,08,13,01,23,22.90
2021,08,13,01,24,22.90
2021,08,13,01,25,22.80
2021,08,13,01,26,22.80
2021,08,13,01,27,22.80
2021,08,13,01,28,22.80
2021,08,13,01,29,22.70
2021,08,13,01,30,22.70
2021,08,13,01,31,22.70
2021,08,13,01,32,22.70
2021,08,13,01,33,22.70
2021,08,13,01,34,22.60
2021,08,13,01,35,22.60
2021,08,13,01,36,22.60
2021,08,13,01,37,22.60
2021,08,13,01,38,22.60
2021,08,13,01,39,22.70
2021,08,13,01,40,22.70
2021,08,13,01,41,22.70
2021,08,13,01,42,22.70
2021,08,13,01,43,22.70
2021,08,13,01,44,22.80
2021,08,13,01,45,22.80
2021,08,13,01,46,22.80
2021,08,13,01,47,22.90
2021,08,13,01,48,22.90
2021,08,13,01,49,22.90
2021,08,13,01,50,22.90
2021,08,13,01,51,22.90
2021,08,13,01,52,22.90
2021,08,13,01,53,22.90
2021,08,13,01,54,22.90
2021,08,13,01,55,22.90
2021,08,13,01,56,22.90
2021,08,13,01,57,22.90
2021,08,13,01,58,22.80
2021,08,13,01,59,22.80
2021,08,13,02,00,22.80
2021,08,13,02,01,22.70
2021,08,13,02,02,22.70
2021,08,13,02,03,22.70
2021,08,13,02,04,22.70
2021,08,13,02,05,22.70
2021,08,13,02,06,22.70
2021,08,13,02,07,22.70
2021,08,13,02,08,22.60
2021,08,13,02,09,22.60
2021,08,13,02,10,22.60
2021,08,13,02,11,22.60
2021,08,13,02,12,22.60
2021,08,13,02,13,22.60
2021,08,13,02,14,22.60
2021,08,13,02,15,22.60
2021,08,13,02,16,22.60
2021,08,13,02,17,22.70
2021,08,13,02,18,22.70
2021,08,13,02,19,22.70
2021,08,13,02,20,22.70
2021,08,13,02,21,22.70
2021,08,13,02,22,22.70
2021,08,13,02,23,22.70
2021,08,13,02,24,22.70
2021,08,13,02,25,22.70
2021,08,13,02,26,22.70
2021,08,13,02,27,22.80
2021,08,13,02,28,22.80
2021,08,13,02,29,22.80
2021,08,13,02,30,22.80
2021,08,13,02,31,22.80
2021,08,13,02,32,22.80
2021,08,13,02,33,22.80
2021,08,13,02,34,22.80
2021,08,13,02,35,22.90
2021,08,13,02,36,22.90
2021,08,13,02,37,22.90
2021,08,13,02,38,22.90
2021,08,13,02,39,22.90
2021,08,13,02,40,22.90
2021,08,13,02,41,22.90
2021,08,13,02,42,22.90
2021,08,13,02,43,22.90
2021,08,13,02,44,22.90
2021,08,13,02,45,22.90
2021,08,13,02,46,22.90
2021,08,13,02,47,23.00
2021,08,13,02,48,23.00
2021,08,13,02,49,23.00
2021,08,13,02,50,22.90
2021,08,13,02,51,22.90
2021,08,13,02,52,22.90
2021,08,13,02,53,22.90
2021,08,13,02,54,22.90
2021,08,13,02,55,22.90
2021,08,13,02,56,22.90
2021,08,13,02,57,22.90
2021,08,13,02,58,22.90
2021,08,13,02,59,22.90
2021,08,13,03,00,22.90
2021,08,13,03,01,22.90
2021,08,13,03,02,22.90
2021,08,13,03,03,22.90
2021,08,13,03,04,22.90
2021,08,13,03,05,22.90
2021,08,13,03,06,22.90
2021,08,13,03,07,22.90
2021,08,13,03,08,22.80
2021,08,13,03,09,22.80
2021,08,13,03,10,22.80
2021,08,13,03,11,22.80
2021,08,13,03,12,22.80
2021,08,13,03,13,22.80
2021,08,13,03,14,22.80
2021,08,13,03,15,22.80
2021,08,13,03,16,22.80
2021,08,13,03,17,22.70
2021,08,13,03,18,22.70
2021,08,13,03,19,22.70
2021,08,13,03,20,22.70
2021,08,13,03,21,22.70
2021,08,13,03,22,22.60
2021,08,13,03,23,22.70
2021,08,13,03,24,22.60
2021,08,13,03,25,22.60
2021,08,13,03,26,22.60
2021,08,13,03,27,22.60
2021,08,13,03,28,22.60
2021,08,13,03,29,22.60
2021,08,13,03,30,22.60
2021,08,13,03,31,22.60
2021,08,13,03,32,22.60
2021,08,13,03,33,22.60
2021,08,13,03,34,22.60
2021,08,13,03,35,22.50
2021,08,13,03,36,22.50
2021,08,13,03,37,22.50
2021,08,13,03,38,22.50
2021,08,13,03,39,22.50
2021,08,13,03,40,22.40
2021,08,13,03,41,22.40
2021,08,13,03,42,22.40
2021,08,13,03,43,22.40
2021,08,13,03,44,22.40
2021,08,13,03,45,22.40
2021,08,13,03,46,22.40
2021,08,13,03,47,22.40
2021,08,13,03,48,22.40
2021,08,13,03,49,22.40
2021,08,13,03,50,22.30
2021,08,13,03,51,22.30
2021,08,13,03,52,22.20
2021,08,13,03,53,22.20
2021,08,13,03,54,22.10
2021,08,13,03,55,22.10
2021,08,13,03,56,22.10
2021,08,13,03,57,22.00
2021,08,13,03,58,22.00
2021,08,13,03,59,22.00
2021,08,13,04,00,21.90
2021,08,13,04,01,21.90
2021,08,13,04,02,21.90
2021,08,13,04,03,21.90
2021,08,13,04,04,21.90
2021,08,13,04,05,21.80
2021,08,13,04,06,21.80
2021,08,13,04,07,21.80
2021,08,13,04,08,21.80
2021,08,13,04,09,21.80
2021,08,13,04,10,21.80
2021,08,13,04,11,21.80
2021,08,13,04,12,21.80
2021,08,13,04,13,21.80
2021,08,13,04,14,21.80
2021,08,13,04,15,21.80
2021,08,13,04,16,21.90
2021,08,13,04,17,21.90
2021,08,13,04,18,21.90
2021,08,13,04,19,21.90
2021,08,13,04,20,21.90
2021,08,13,04,21,21.90
2021,08,13,04,22,21.90
2021,08,13,04,23,21.90
2021,08,13,04,24,21.90
2021,08,13,04,25,21.90
2021,08,13,04,26,21.80
2021,08,13,04,27,21.80
2021,08,13,04,28,21.80
2021,08,13,04,29,21.80
2021,08,13,04,30,21.80
2021,08,13,04,31,21.80
2021,08,13,04,32,21.80
2021,08,13,04,33,21.70
2021,08,13,04,34,21.70
2021,08,13,04,35,21.70
2021,08,13,04,36,21.70
2021,08,13,04,37,21.70
2021,08,13,04,38,21.70
2021,08,13,04,39,21.70
2021,08,13,04,40,21.70
2021,08,13,04,41,21.70
2021,08,13,04,42,21.70
2021,08,13,04,43,21.70
2021,08,13,04,44,21.70
2021,08,13,04,45,21.70
2021,08,13,04,46,21.70
2021,08,13,04,47,21.70
2021,08,13,04,48,21.70
2021,08,13,04,49,21.70
2021,08,13,04,50,21.70
2021,08,13,04,51,21.80
2021,08,13,04,52,21.80
2021,08,13,04,53,21.80
2021,08,13,04,54,21.80
2021,08,13,04,55,21.90
2021,08,13,04,56,21.90
2021,08,13,04,57,21.90
2021,08,13,04,58,22.00
2021,08,13,04,59,22.00
2021,08,13,05,00,22.00
2021,08,13,05,01,22.10
2021,08,13,05,02,22.10
2021,08,13,05,03,22.10
2021,08,13,05,04,22.10
2021,08,13,05,05,22.10
2021,08,13,05,06,22.10
2021,08,13,05,07,22.10
2021,08,13,05,08,22.20
2021,08,13,05,09,22.20
2021,08,13,05,10,22.20
2021,08,13,05,11,22.20
2021,08,13,05,12,22.20
2021,08,13,05,13,22.30
2021,08,13,05,14,22.30
2021,08,13,05,15,22.30
2021,08,13,05,16,22.30
2021,08,13,05,17,22.30
2021,08,13,05,18,22.40
2021,08,13,05,19,22.40
2021,08,13,05,20,22.40
2021,08,13,05,21,22.40
2021,08,13,05,22,22.50
2021,08,13,05,23,22.50
2021,08,13,05,24,22.50
2021,08,13,05,25,22.50
2021,08,13,05,26,22.50
2021,08,13,05,27,22.60
2021,08,13,05,28,22.60
2021,08,13,05,29,22.50
2021,08,13,05,30,22.50
2021,08,13,05,31,22.40
2021,08,13,05,32,22.40
2021,08,13,05,33,22.30
2021,08,13,05,34,22.20
2021,08,13,05,35,22.20
2021,08,13,05,36,22.10
2021,08,13,05,37,22.00
2021,08,13,05,38,22.00
2021,08,13,05,39,21.90
2021,08,13,05,40,21.80
2021,08,13,05,41,21.80
2021,08,13,05,42,21.70
2021,08,13,05,43,21.60
2021,08,13,05,44,21.60
2021,08,13,05,45,21.50
2021,08,13,05,46,21.50
2021,08,13,05,47,21.50
2021,08,13,05,48,21.50
2021,08,13,05,49,21.50
2021,08,13,05,50,21.60
2021,08,13,05,51,21.60
2021,08,13,05,52,21.60
2021,08,13,05,53,21.70
2021,08,13,05,54,21.70
2021,08,13,05,55,21.80
2021,08,13,05,56,21.80
2021,08,13,05,57,21.80
2021,08,13,05,58,21.90
2021,08,13,05,59,21.90
2021,08,13,06,00,22.00
2021,08,13,06,01,22.00
2021,08,13,06,02,22.00
2021,08,13,06,03,22.10
2021,08,13,06,04,22.10
2021,08,13,06,05,22.20
2021,08,13,06,06,22.20
2021,08,13,06,07,22.20
2021,08,13,06,08,22.20
2021,08,13,06,09,22.20
2021,08,13,06,10,22.30
2021,08,13,06,11,22.30
2021,08,13,06,12,22.30
2021,08,13,06,13,22.30
2021,08,13,06,14,22.30
2021,08,13,06,15,22.30
2021,08,13,06,16,22.30
2021,08,13,06,17,22.30
2021,08,13,06,18,22.30
2021,08,13,06,19,22.30
2021,08,13,06,20,22.30
2021,08,13,06,21,22.30
2021,08,13,06,22,22.30
2021,08,13,06,23,22.30
2021,08,13,06,24,22.30
2021,08,13,06,25,22.30
2021,08,13,06,26,22.30
2021,08,13,06,27,22.30
2021,08,13,06,28,22.30
2021,08,13,06,29,22.30
2021,08,13,06,30,22.30
2021,08,13,06,31,22.30
2021,08,13,06,32,22.20
2021,08,13,06,33,22.20
2021,08,13,06,34,22.10
2021,08,13,06,35,22.10
2021,08,13,06,36,22.00
2021,08,13,06,37,22.00
2021,08,13,06,38,21.90
2021,08,13,06,39,21.80
2021,08,13,06,40,21.70
2021,08,13,06,41,21.70
2021,08,13,06,42,21.60
2021,08,13,06,43,21.60
2021,08,13,06,44,21.50
2021,08,13,06,45,21.40
2021,08,13,06,46,21.40
2021,08,13,06,47,21.30
2021,08,13,06,48,21.30
2021,08,13,06,49,21.20
2021,08,13,06,50,21.20
2021,08,13,06,51,21.20
2021,08,13,06,52,21.10
2021,08,13,06,53,21.10
2021,08,13,06,54,21.10
2021,08,13,06,55,21.10
2021,08,13,06,56,21.00
2021,08,13,06,57,21.00
2021,08,13,06,58,21.00
2021,08,13,06,59,21.00
2021,08,13,07,00,21.00
2021,08,13,07,01,21.00
2021,08,13,07,02,21.00
2021,08,13,07,03,21.00
2021,08,13,07,04,21.00
2021,08,13,07,05,21.00
2021,08,13,07,06,21.10
2021,08,13,07,07,21.10
2021,08,13,07,08,21.10
2021,08,13,07,09,21.10
2021,08,13,07,10,21.20
2021,08,13,07,11,21.20
2021,08,13,07,12,21.20
2021,08,13,07,13,21.30
2021,08,13,07,14,21.30
2021,08,13,07,15,21.30
2021,08,13,07,16,21.40
2021,08,13,07,17,21.40
2021,08,13,07,18,21.40
2021,08,13,07,19,21.50
2021,08,13,07,20,21.60
2021,08,13,07,21,21.60
2021,08,13,07,22,21.60
2021,08,13,07,23,21.70
2021,08,13,07,24,21.70
2021,08,13,07,25,21.70
2021,08,13,07,26,21.70
2021,08,13,07,27,21.70
2021,08,13,07,28,21.80
2021,08,13,07,29,21.80
2021,08,13,07,30,21.80
2021,08,13,07,31,21.80
2021,08,13,07,32,21.80
2021,08,13,07,33,21.80
2021,08,13,07,34,21.80
2021,08,13,07,35,21.80
2021,08,13,07,36,21.80
2021,08,13,07,37,21.70
2021,08,13,07,38,21.70
2021,08,13,07,39,21.70
2021,08,13,07,40,21.70
2021,08,13,07,41,21.70
2021,08,13,07,42,21.60
2021,08,13,07,43,21.60
2021,08,13,07,44,21.60
2021,08,13,07,45,21.60
2021,08,13,07,46,21.50
2021,08,13,07,47,21.50
2021,08,13,07,48,21.50
2021,08,13,07,49,21.50
2021,08,13,07,50,21.50
2021,08,13,07,51,21.40
2021,08,13,07,52,21.40
2021,08,13,07,53,21.40
2021,08,13,07,54,21.50
2021,08,13,07,55,21.40
2021,08,13,07,56,21.50
2021,08,13,07,57,21.50
2021,08,13,07,58,21.50
2021,08,13,07,59,21.50
2021,08,13,08,00,21.40
2021,08,13,08,01,21.40
2021,08,13,08,02,21.40
2021,08,13,08,03,21.40
2021,08,13,08,04,21.40
2021,08,13,08,05,21.40
2021,08,13,08,06,21.30
2021,08,13,08,07,21.30
2021,08,13,08,08,21.30
2021,08,13,08,09,21.30
2021,08,13,08,10,21.30
2021,08,13,08,11,21.20
2021,08,13,08,12,21.20
2021,08,13,08,13,21.20
2021,08,13,08,14,21.10
2021,08,13,08,15,21.10
2021,08,13,08,16,21.10
2021,08,13,08,17,21.00
2021,08,13,08,18,21.00
2021,08,13,08,19,21.00
2021,08,13,08,20,21.00
2021,08,13,08,21,20.90
2021,08,13,08,22,20.90
2021,08,13,08,23,20.90
2021,08,13,08,24,20.90
2021,08,13,08,25,20.80
2021,08,13,08,26,20.80
2021,08,13,08,27,20.80
2021,08,13,08,28,20.80
2021,08,13,08,29,20.80
2021,08,13,08,30,20.80
2021,08,13,08,31,20.80
2021,08,13,08,32,20.80
2021,08,13,08,33,20.80
2021,08,13,08,34,20.80
2021,08,13,08,35,20.80
2021,08,13,08,36,20.90
2021,08,13,08,37,20.90
2021,08,13,08,38,20.90
2021,08,13,08,39,20.90
2021,08,13,08,40,20.90
2021,08,13,08,41,21.00
2021,08,13,08,42,21.00
2021,08,13,08,43,21.10
2021,08,13,08,44,21.10
2021,08,13,08,45,21.10
2021,08,13,08,46,21.20
2021,08,13,08,47,21.20
2021,08,13,08,48,21.20
2021,08,13,08,49,21.30
2021,08,13,08,50,21.30
2021,08,13,08,51,21.30
2021,08,13,08,52,21.40
2021,08,13,08,53,21.40
2021,08,13,08,54,21.40
2021,08,13,08,55,21.50
2021,08,13,08,56,21.50
2021,08,13,08,57,21.50
2021,08,13,08,58,21.60
2021,08,13,08,59,21.60
2021,08,13,09,00,21.60
2021,08,13,09,01,21.60
2021,08,13,09,02,21.60
2021,08,13,09,03,21.60
2021,08,13,09,04,21.70
2021,08,13,09,05,21.70
2021,08,13,09,06,21.70
2021,08,13,09,07,21.70
2021,08,13,09,08,21.80
2021,08,13,09,09,21.80
2021,08,13,09,10,21.80
2021,08,13,09,11,21.90
2021,08,13,09,12,21.90
2021,08,13,09,13,21.90
2021,08,13,09,14,22.00
2021,08,13,09,15,22.00
2021,08,13,09,16,22.00
2021,08,13,09,17,22.00
2021,08,13,09,18,21.90
2021,08,13,09,19,21.90
2021,08,13,09,20,21.90
2021,08,13,09,21,21.90
2021,08,13,09,22,21.80
2021,08,13,09,23,21.80
2021,08,13,09,24,21.80
2021,08,13,09,25,21.80
2021,08,13,09,26,21.80
2021,08,13,09,27,21.80
2021,08,13,09,28,21.80
2021,08,13,09,29,21.80
2021,08,13,09,30,21.80
2021,08,13,09,31,21.80
2021,08,13,09,32,21.80
2021,08,13,09,33,21.80
2021,08,13,09,34,21.90
2021,08,13,09,35,21.90
2021,08,13,09,36,21.90
2021,08,13,09,37,21.90
2021,08,13,09,38,21.90
2021,08,13,09,39,22.00
2021,08,13,09,40,21.90
2021,08,13,09,41,22.00
2021,08,13,09,42,21.90
2021,08,13,09,43,22.00
2021,08,13,09,44,22.00
2021,08,13,09,45,22.00
2021,08,13,09,46,22.00
2021,08,13,09,47,22.00
2021,08,13,09,48,22.00
2021,08,13,09,49,22.00
2021,08,13,09,50,22.00
2021,08,13,09,51,22.00
2021,08,13,09,52,22.00
2021,08,13,09,53,22.00
2021,08,13,09,54,22.00
2021,08,13,09,55,22.00
2021,08,13,09,56,22.10
2021,08,13,09,57,22.10
2021,08,13,09,58,22.10
2021,08,13,09,59,22.10
2021,08,13,10,00,22.10
2021,08,13,10,01,22.10
2021,08,13,10,02,22.10
2021,08,13,10,03,22.20
2021,08,13,10,04,22.20
2021,08,13,10,05,22.20
2021,08,13,10,06,22.30
2021,08,13,10,07,22.30
2021,08,13,10,08,22.30
2021,08,13,10,09,22.40
2021,08,13,10,10,22.40
2021,08,13,10,11,22.50
2021,08,13,10,12,22.50
2021,08,13,10,13,22.60
2021,08,13,10,14,22.60
2021,08,13,10,15,22.60
2021,08,13,10,16,22.60
2021,08,13,10,17,22.70
2021,08,13,10,18,22.70
2021,08,13,10,19,22.70
2021,08,13,10,20,22.70
2021,08,13,10,21,22.80
2021,08,13,10,22,22.80
2021,08,13,10,23,22.80
2021,08,13,10,24,22.80
2021,08,13,10,25,22.80
2021,08,13,10,26,22.80
2021,08,13,10,27,22.90
2021,08,13,10,28,22.90
2021,08,13,10,29,22.90
2021,08,13,10,30,22.90
2021,08,13,10,31,23.00
2021,08,13,10,32,23.00
2021,08,13,10,33,23.00
2021,08,13,10,34,23.00
2021,08,13,10,35,23.00
2021,08,13,10,36,23.10
2021,08,13,10,37,23.10
2021,08,13,10,38,23.10
2021,08,13,10,39,23.10
2021,08,13,10,40,23.10
2021,08,13,10,41,23.20
2021,08,13,10,42,23.20
2021,08,13,10,43,23.20
2021,08,13,10,44,23.20
2021,08,13,10,45,23.20
2021,08,13,10,46,23.20
2021,08,13,10,47,23.20
2021,08,13,10,48,23.20
2021,08,13,10,49,23.30
2021,08,13,10,50,23.30
2021,08,13,10,51,23.30
2021,08,13,10,52,23.30
2021,08,13,10,53,23.30
2021,08,13,10,54,23.30
2021,08,13,10,55,23.40
2021,08,13,10,56,23.40
2021,08,13,10,57,23.40
2021,08,13,10,58,23.40
2021,08,13,10,59,23.50
2021,08,13,11,00,23.50
2021,08,13,11,01,23.50
2021,08,13,11,02,23.50
2021,08,13,11,03,23.60
2021,08,13,11,04,23.60
2021,08,13,11,05,23.60
2021,08,13,11,06,23.60
2021,08,13,11,07,23.60
2021,08,13,11,08,23.70
2021,08,13,11,09,23.70
2021,08,13,11,10,23.70
2021,08,13,11,11,23.70
2021,08,13,11,12,23.70
2021,08,13,11,13,23.80
2021,08,13,11,14,23.80
2021,08,13,11,15,23.80
2021,08,13,11,16,23.70
2021,08,13,11,17,23.70
2021,08,13,11,18,23.70
2021,08,13,11,19,23.70
2021,08,13,11,20,23.70
2021,08,13,11,21,23.70
2021,08,13,11,22,23.70
2021,08,13,11,23,23.70
2021,08,13,11,24,23.80
2021,08,13,11,25,23.80
2021,08,13,11,26,23.80
2021,08,13,11,27,23.80
2021,08,13,11,28,23.80
2021,08,13,11,29,23.80
2021,08,13,11,30,23.80
2021,08,13,11,31,23.90
2021,08,13,11,32,23.90
2021,08,13,11,33,23.90
2021,08,13,11,34,24.00
2021,08,13,11,35,24.00
2021,08,13,11,36,24.10
2021,08,13,11,37,24.10
2021,08,13,11,38,24.10
2021,08,13,11,39,24.20
2021,08,13,11,40,24.20
2021,08,13,11,41,24.20
2021,08,13,11,42,24.30
2021,08,13,11,43,24.30
2021,08,13,11,44,24.30
2021,08,13,11,45,24.30
2021,08,13,11,46,24.30
2021,08,13,11,47,24.30
2021,08,13,11,48,24.30
2021,08,13,11,49,24.30
2021,08,13,11,50,24.30
2021,08,13,11,51,24.30
2021,08,13,11,52,24.30
2021,08,13,11,53,24.20
2021,08,13,11,54,24.20
2021,08,13,11,55,24.20
2021,08,13,11,56,24.20
2021,08,13,11,57,24.10
2021,08,13,11,58,24.10
2021,08,13,11,59,24.10
2021,08,13,12,00,24.10
2021,08,13,12,01,24.10
2021,08,13,12,02,24.10
2021,08,13,12,03,24.10
2021,08,13,12,04,24.10
2021,08,13,12,05,24.10
2021,08,13,12,06,24.20
2021,08,13,12,07,24.20
2021,08,13,12,08,24.30
2021,08,13,12,09,24.30
2021,08,13,12,10,24.30
2021,08,13,12,11,24.40
2021,08,13,12,12,24.40
2021,08,13,12,13,24.50
2021,08,13,12,14,24.50
2021,08,13,12,15,24.60
2021,08,13,12,16,24.60
2021,08,13,12,17,24.70
2021,08,13,12,18,24.80
2021,08,13,12,19,24.80
2021,08,13,12,20,24.90
2021,08,13,12,21,25.00
2021,08,13,12,22,25.10
2021,08,13,12,23,25.20
2021,08,13,12,24,25.20
2021,08,13,12,25,25.30
2021,08,13,12,26,25.30
2021,08,13,12,27,25.30
2021,08,13,12,28,25.30
2021,08,13,12,29,25.30
2021,08,13,12,30,25.30
2021,08,13,12,31,25.30
2021,08,13,12,32,25.30
2021,08,13,12,33,25.30
2021,08,13,12,34,25.40
2021,08,13,12,35,25.40
2021,08,13,12,36,25.40
2021,08,13,12,37,25.40
2021,08,13,12,38,25.50
2021,08,13,12,39,25.50
2021,08,13,12,40,25.50
2021,08,13,12,41,25.60
2021,08,13,12,42,25.60
2021,08,13,12,43,25.60
2021,08,13,12,44,25.70
2021,08,13,12,45,25.70
2021,08,13,12,46,25.70
2021,08,13,12,47,25.80
2021,08,13,12,48,25.80
2021,08,13,12,49,25.80
2021,08,13,12,50,25.80
2021,08,13,12,51,25.90
2021,08,13,12,52,25.90
2021,08,13,12,53,25.90
2021,08,13,12,54,25.90
2021,08,13,12,55,25.90
2021,08,13,12,56,25.90
2021,08,13,12,57,25.90
2021,08,13,12,58,25.90
2021,08,13,12,59,25.90
2021,08,13,13,00,25.80
2021,08,13,13,01,25.80
2021,08,13,13,02,25.80
2021,08,13,13,03,25.80
2021,08,13,13,04,25.80
2021,08,13,13,05,25.80
2021,08,13,13,06,25.70
2021,08,13,13,07,25.60
2021,08,13,13,08,25.50
2021,08,13,13,09,25.40
2021,08,13,13,10,25.40
2021,08,13,13,11,25.30
2021,08,13,13,12,25.30
2021,08,13,13,13,25.30
2021,08,13,13,14,25.30
2021,08,13,13,15,25.30
2021,08,13,13,16,25.30
2021,08,13,13,17,25.40
2021,08,13,13,18,25.40
2021,08,13,13,19,25.50
2021,08,13,13,20,25.60
2021,08,13,13,21,25.70
2021,08,13,13,22,25.70
2021,08,13,13,23,25.70
2021,08,13,13,24,25.80
2021,08,13,13,25,25.80
2021,08,13,13,26,25.80
2021,08,13,13,27,25.80
2021,08,13,13,28,25.80
2021,08,13,13,29,25.80
2021,08,13,13,30,25.80
2021,08,13,13,31,25.80
2021,08,13,13,32,25.70
2021,08,13,13,33,25.60
2021,08,13,13,34,25.50
2021,08,13,13,35,25.40
2021,08,13,13,36,25.40
2021,08,13,13,37,25.40
2021,08,13,13,38,25.40
2021,08,13,13,39,25.40
2021,08,13,13,40,25.50
2021,08,13,13,41,25.50
2021,08,13,13,42,25.60
2021,08,13,13,43,25.60
2021,08,13,13,44,25.60
2021,08,13,13,45,25.70
2021,08,13,13,46,25.80
2021,08,13,13,47,25.80
2021,08,13,13,48,25.80
2021,08,13,13,49,25.80
2021,08,13,13,50,25.80
2021,08,13,13,51,25.80
2021,08,13,13,52,25.70
2021,08,13,13,53,25.60
2021,08,13,13,54,25.50
2021,08,13,13,55,25.50
2021,08,13,13,56,25.40
2021,08,13,13,57,25.40
2021,08,13,13,58,25.40
2021,08,13,13,59,25.40
2021,08,13,14,00,25.40
2021,08,13,14,01,25.40
2021,08,13,14,02,25.40
2021,08,13,14,03,25.40
2021,08,13,14,04,25.50
2021,08,13,14,05,25.50
2021,08,13,14,06,25.60
2021,08,13,14,07,25.60
2021,08,13,14,08,25.70
2021,08,13,14,09,25.80
2021,08,13,14,10,25.90
2021,08,13,14,11,25.90
2021,08,13,14,12,26.00
2021,08,13,14,13,26.00
2021,08,13,14,14,26.00
2021,08,13,14,15,26.10
2021,08,13,14,16,26.10
2021,08,13,14,17,26.10
2021,08,13,14,18,26.20
2021,08,13,14,19,26.20
2021,08,13,14,20,26.20
2021,08,13,14,21,26.20
2021,08,13,14,22,26.20
2021,08,13,14,23,26.20
2021,08,13,14,24,26.20
2021,08,13,14,25,26.20
2021,08,13,14,26,26.20
2021,08,13,14,27,26.10
2021,08,13,14,28,26.10
2021,08,13,14,29,26.00
2021,08,13,14,30,26.00
2021,08,13,14,31,25.90
2021,08,13,14,32,25.90
2021,08,13,14,33,25.90
2021,08,13,14,34,25.90
2021,08,13,14,35,25.80
2021,08,13,14,36,25.80
2021,08,13,14,37,25.90
2021,08,13,14,38,25.90
2021,08,13,14,39,25.90
2021,08,13,14,40,25.90
2021,08,13,14,41,25.90
2021,08,13,14,42,25.90
2021,08,13,14,43,25.90
2021,08,13,14,44,25.90
2021,08,13,14,45,25.90
2021,08,13,14,46,25.90
2021,08,13,14,47,25.90
2021,08,13,14,48,25.90
2021,08,13,14,49,25.90
2021,08,13,14,50,25.90
2021,08,13,14,51,25.90
2021,08,13,14,52,26.00
2021,08,13,14,53,26.10
2021,08,13,14,54,26.10
2021,08,13,14,55,26.10
2021,08,13,14,56,26.20
2021,08,13,14,57,26.30
2021,08,13,14,58,26.30
2021,08,13,14,59,26.30
2021,08,13,15,00,26.40
2021,08,13,15,01,26.40
2021,08,13,15,02,26.40
2021,08,13,15,03,26.40
2021,08,13,15,04,26.40
2021,08,13,15,05,26.40
2021,08,13,15,06,26.40
2021,08,13,15,07,26.40
2021,08,13,15,08,26.40
2021,08,13,15,09,26.40
2021,08,13,15,10,26.40
2021,08,13,15,11,26.40
2021,08,13,15,12,26.30
2021,08,13,15,13,26.30
2021,08,13,15,14,26.30
2021,08,13,15,15,26.30
2021,08,13,15,16,26.20
2021,08,13,15,17,26.20
2021,08,13,15,18,26.20
2021,08,13,15,19,26.10
2021,08,13,15,20,26.10
2021,08,13,15,21,26.10
2021,08,13,15,22,26.10
2021,08,13,15,23,26.10
2021,08,13,15,24,26.10
2021,08,13,15,25,26.20
2021,08,13,15,26,26.20
2021,08,13,15,27,26.20
2021,08,13,15,28,26.20
2021,08,13,15,29,26.30
2021,08,13,15,30,26.30
2021,08,13,15,31,26.30
2021,08,13,15,32,26.40
2021,08,13,15,33,26.40
2021,08,13,15,34,26.40
2021,08,13,15,35,26.40
2021,08,13,15,36,26.40
2021,08,13,15,37,26.40
2021,08,13,15,38,26.50
2021,08,13,15,39,26.50
2021,08,13,15,40,26.60
2021,08,13,15,41,26.60
2021,08,13,15,42,26.60
2021,08,13,15,43,26.70
2021,08,13,15,44,26.70
2021,08,13,15,45,26.70
2021,08,13,15,46,26.70
2021,08,13,15,47,26.70
2021,08,13,15,48,26.70
2021,08,13,15,49,26.70
2021,08,13,15,50,26.70
2021,08,13,15,51,26.70
2021,08,13,15,52,26.70
2021,08,13,15,53,26.60
2021,08,13,15,54,26.60
2021,08,13,15,55,26.60
2021,08,13,15,56,26.60
2021,08,13,15,57,26.60
2021,08,13,15,58,26.60
2021,08,13,15,59,26.50
2021,08,13,16,00,26.40
2021,08,13,16,01,26.40
2021,08,13,16,02,26.40
2021,08,13,16,03,26.30
2021,08,13,16,04,26.30
2021,08,13,16,05,26.30
2021,08,13,16,06,26.30
2021,08,13,16,07,26.30
2021,08,13,16,08,26.30
2021,08,13,16,09,26.30
2021,08,13,16,10,26.30
2021,08,13,16,11,26.20
2021,08,13,16,12,26.20
2021,08,13,16,13,26.20
2021,08,13,16,14,26.20
2021,08,13,16,15,26.20
2021,08,13,16,16,26.10
2021,08,13,16,17,26.10
2021,08,13,16,18,26.00
2021,08,13,16,19,26.00
2021,08,13,16,20,25.90
2021,08,13,16,21,25.90
2021,08,13,16,22,25.90
2021,08,13,16,23,25.90
2021,08,13,16,24,25.80
2021,08,13,16,25,25.80
2021,08,13,16,26,25.80
2021,08,13,16,27,25.80
2021,08,13,16,28,25.80
2021,08,13,16,29,25.80
2021,08,13,16,30,25.70
2021,08,13,16,31,25.70
2021,08,13,16,32,25.70
2021,08,13,16,33,25.70
2021,08,13,16,34,25.70
2021,08,13,16,35,25.70
2021,08,13,16,36,25.80
2021,08,13,16,37,25.80
2021,08,13,16,38,25.80
2021,08,13,16,39,25.90
2021,08,13,16,40,25.90
2021,08,13,16,41,25.90
2021,08,13,16,42,26.00
2021,08,13,16,43,26.10
2021,08,13,16,44,26.10
2021,08,13,16,45,26.20
2021,08,13,16,46,26.20
2021,08,13,16,47,26.30
2021,08,13,16,48,26.40
2021,08,13,16,49,26.40
2021,08,13,16,50,26.50
2021,08,13,16,51,26.60
2021,08,13,16,52,26.60
2021,08,13,16,53,26.70
2021,08,13,16,54,26.70
2021,08,13,16,55,26.80
2021,08,13,16,56,26.80
2021,08,13,16,57,26.80
2021,08,13,16,58,26.70
2021,08,13,16,59,26.70
2021,08,13,17,00,26.70
2021,08,13,17,01,26.60
2021,08,13,17,02,26.50
2021,08,13,17,03,26.50
2021,08,13,17,04,26.40
2021,08,13,17,05,26.30
2021,08,13,17,06,26.30
2021,08,13,17,07,26.30
2021,08,13,17,08,26.20
2021,08,13,17,09,26.20
2021,08,13,17,10,26.20
2021,08,13,17,11,26.20
2021,08,13,17,12,26.20
2021,08,13,17,13,26.20
2021,08,13,17,14,26.20
2021,08,13,17,15,26.20
2021,08,13,17,16,26.30
2021,08,13,17,17,26.30
2021,08,13,17,18,26.30
2021,08,13,17,19,26.30